Theta_e
310 311 313 312 311 298 303 305 299 301 307 306 302 307 306 306 303 297 309 309 312 311 312 315 318 318 319 320 321 323 323 324 325 325 327 327 328 331 333 334 336 340 342 345 346 348 349 350 350 346 342 342 343 343 343 343 344 343 344 346 345 346 346
310 313 312 312 312 311 306 300 302 309 311 309 307 297 301 297 292 296 301 298 299 302 298 311 315 315 316 316 317 323 323 324 324 325 326 326 327 332 334 335 338 341 342 345 346 349 350 351 350 344 342 343 344 345 344 345 343 342 343 346 345 345 345
312 313 312 309 312 314 305 305 312 304 296 297 305 302 293 295 293 295 297 300 302 302 304 308 308 310 310 312 318 321 321 323 325 327 327 327 331 332 334 334 339 340 342 344 346 349 351 351 350 345 344 345 345 346 345 347 344 344 344 346 346 346 345
311 310 308 300 304 310 312 311 307 310 304 301 298 300 300 298 294 296 295 301 298 313 306 309 309 311 312 311 315 318 321 324 328 328 328 329 333 333 334 336 340 341 343 345 347 349 350 350 349 345 345 346 347 347 346 346 346 344 346 345 347 343 344
309 301 305 303 303 301 302 304 302 304 305 309 305 305 300 296 293 291 293 294 301 307 317 312 312 313 313 313 313 317 318 321 326 328 329 330 333 334 335 337 340 340 342 346 349 350 351 351 349 346 346 346 347 348 346 347 345 345 345 345 345 343 344
302 302 309 309 309 307 304 301 300 301 301 301 296 294 305 303 295 291 293 296 301 314 323 320 317 318 319 319 317 316 316 319 322 324 328 333 333 334 336 337 340 341 342 347 351 351 350 349 347 345 345 346 346 347 347 346 347 347 345 345 344 343 344
303 307 310 313 312 311 309 306 303 306 303 304 302 290 296 304 303 305 301 296 299 314 318 316 315 314 315 318 317 316 315 322 324 323 328 334 334 334 336 337 338 341 341 344 349 349 348 348 346 344 343 344 345 346 347 345 346 347 347 345 344 344 344
308 310 311 312 313 311 308 307 308 306 303 303 302 302 304 299 302 297 299 298 299 313 324 320 318 317 317 317 315 319 319 321 323 323 326 333 332 333 334 335 336 339 341 341 343 345 346 346 344 342 342 343 345 345 345 344 344 346 346 345 344 344 343
299 304 306 306 310 309 304 304 305 307 308 308 306 308 312 301 301 301 296 293 299 316 320 315 315 314 315 314 317 321 320 320 322 322 330 332 334 333 333 333 333 338 340 340 341 343 343 344 343 342 342 343 343 344 343 342 343 345 344 344 343 344 342
291 292 292 293 298 302 304 308 306 307 306 305 302 298 304 294 303 305 299 302 305 312 319 315 314 314 316 315 315 321 320 321 325 323 331 337 336 336 335 334 333 335 339 341 340 340 341 341 341 341 342 342 342 341 342 341 341 343 340 342 343 343 342
295 298 304 309 310 305 301 304 306 306 308 306 305 303 300 294 297 301 299 306 307 309 313 312 313 314 315 317 318 320 320 321 324 329 334 340 339 339 336 337 336 336 338 340 340 339 340 340 340 339 339 340 339 336 338 339 339 340 337 340 342 342 342
305 309 311 308 309 305 305 305 305 306 306 306 305 301 299 304 301 292 303 308 307 306 311 311 312 314 316 319 320 321 318 322 321 325 337 348 342 343 341 338 338 337 337 339 339 338 338 338 339 338 338 338 337 335 335 335 335 337 337 340 341 341 340
309 309 307 307 308 308 308 307 307 306 306 305 303 307 308 310 301 296 306 309 309 308 312 313 314 316 315 317 319 319 324 326 324 324 335 341 342 344 344 338 339 338 337 338 338 338 337 337 338 337 337 336 336 336 335 333 334 335 338 340 341 341 340
306 306 306 307 306 308 306 306 307 306 306 305 305 305 309 313 310 311 312 311 312 312 313 316 317 318 317 320 321 319 318 326 327 325 327 336 340 342 342 341 340 340 339 338 338 338 337 336 339 338 337 336 336 335 331 330 333 335 339 339 340 340 337
309 306 307 307 306 305 303 305 306 307 306 306 306 306 307 309 308 316 314 312 311 314 315 316 321 319 323 319 318 317 322 323 327 327 330 329 334 339 339 341 342 341 341 340 339 338 337 337 340 340 338 337 335 332 328 332 333 334 335 335 335 335 335
304 306 305 306 306 305 304 304 305 306 307 305 306 305 310 306 305 308 313 310 310 315 319 320 322 321 319 319 320 320 320 320 321 316 318 319 329 335 336 338 343 343 342 342 340 338 337 340 341 340 337 335 331 328 329 331 334 335 333 332 333 335 335
300 306 306 304 304 303 301 302 305 306 306 310 308 309 310 310 313 309 303 305 312 316 321 318 317 318 318 318 320 325 328 328 331 330 330 332 332 335 339 341 343 343 343 342 343 340 339 341 342 339 337 333 329 330 329 329 334 336 335 334 334 335 335
301 305 304 305 304 295 295 312 314 313 309 309 307 307 310 315 318 313 313 314 316 316 317 317 317 317 316 316 319 322 322 323 324 326 330 333 332 336 340 342 343 342 342 341 343 343 342 343 342 339 338 333 332 331 331 331 332 333 336 334 335 335 335
299 305 307 300 293 295 311 318 314 313 311 310 309 311 313 316 316 317 315 316 318 319 316 316 318 319 319 322 323 325 329 328 327 326 327 329 332 332 332 340 341 341 341 341 342 342 343 343 341 339 337 334 331 331 330 329 329 330 332 336 337 337 337
304 300 299 290 293 309 320 315 313 316 313 313 312 310 315 315 317 317 313 314 317 317 315 316 317 317 321 326 328 326 327 328 326 326 326 327 326 327 330 329 339 342 342 342 343 343 346 343 342 339 334 332 331 330 330 328 329 329 330 335 339 339 337
298 300 298 298 308 307 314 312 313 311 310 312 309 303 308 319 318 322 316 316 314 318 319 319 317 317 319 316 317 324 327 326 325 323 323 323 324 326 331 335 341 343 344 344 347 347 346 344 342 338 333 331 331 330 329 330 330 330 332 336 338 339 338
307 298 296 298 297 294 301 314 318 315 316 315 318 309 307 320 315 319 318 314 316 319 319 320 321 321 311 310 313 321 325 325 327 326 331 330 329 335 342 351 353 351 350 349 350 349 346 344 341 336 332 330 329 328 329 329 329 330 334 335 338 339 339
305 303 296 295 295 300 310 317 318 319 317 316 320 309 300 315 319 319 320 317 319 319 320 319 320 314 308 310 317 321 324 325 327 326 326 326 338 342 346 349 350 351 351 351 351 349 346 342 339 335 331 329 329 327 328 328 330 331 335 336 338 339 339
303 303 299 297 303 303 314 316 316 316 317 319 311 297 298 314 320 321 319 320 316 316 318 319 316 312 309 310 318 319 320 320 327 326 328 340 341 343 345 348 350 350 351 351 350 347 343 341 338 334 331 330 330 329 330 331 331 332 334 337 339 340 340
301 302 300 303 305 318 318 317 316 315 318 314 301 292 305 317 321 320 317 317 319 318 316 316 312 316 316 319 322 323 323 321 325 336 340 341 342 342 344 347 351 349 349 348 347 347 344 342 338 335 332 331 331 333 334 333 332 334 335 337 339 340 340
302 302 300 300 306 319 317 316 318 316 314 300 299 313 324 322 317 320 320 317 320 321 320 322 319 320 322 323 323 323 324 326 333 337 339 341 342 343 346 347 348 348 348 345 345 345 345 342 339 337 335 333 334 337 335 333 334 336 337 337 339 340 340
308 306 303 295 291 307 320 317 319 321 312 312 320 324 322 321 319 320 321 322 321 321 319 320 321 322 323 324 325 324 324 325 332 335 336 336 336 342 343 344 347 347 345 345 344 344 344 342 341 340 338 337 338 339 336 337 342 347 344 341 341 342 341
303 302 297 294 307 316 321 317 312 320 323 321 329 323 319 322 321 320 320 323 324 324 323 323 324 324 324 326 326 325 328 328 335 333 331 330 333 343 346 346 345 343 338 333 332 339 344 342 343 342 343 341 342 341 342 345 345 345 346 346 345 344 341
312 308 309 316 321 319 320 322 322 324 327 328 330 323 320 318 319 323 321 323 323 326 325 326 326 324 325 326 327 324 327 332 333 333 335 339 340 340 339 336 336 335 334 331 331 332 337 342 343 345 345 344 344 341 341 343 342 343 342 342 341 342 341
319 318 320 321 317 317 318 321 323 323 323 324 324 322 319 322 324 324 323 323 324 325 326 324 325 326 325 324 325 326 332 335 337 337 337 335 334 333 334 334 333 332 333 333 333 332 333 339 345 346 346 344 342 340 341 341 340 340 341 339 338 339 340
306 298 314 317 315 316 318 319 321 321 322 321 323 322 322 323 324 325 323 321 327 329 329 328 327 327 328 326 329 332 338 337 335 334 333 334 334 334 333 334 334 331 332 332 333 333 334 337 337 340 341 341 339 340 339 341 341 341 340 340 340 340 340
308 307 316 319 321 317 319 318 317 318 320 322 324 326 325 324 325 325 325 324 327 328 328 331 331 331 333 333 331 333 333 332 332 333 332 331 330 331 332 332 332 331 330 331 333 333 332 333 339 340 340 340 342 339 338 330 334 340 338 340 340 339 339
317 319 321 320 323 316 316 318 318 319 319 319 320 321 320 321 321 322 324 327 327 327 327 333 333 332 331 331 331 332 331 329 330 331 330 330 331 332 332 332 332 329 330 331 331 331 330 331 331 328 328 326 327 328 332 335 334 334 337 338 336 336 337
308 310 315 317 313 309 313 319 323 321 320 319 319 319 319 320 319 319 320 321 326 329 328 332 336 333 330 330 329 330 330 329 329 329 330 329 330 331 332 333 333 332 332 330 329 328 328 330 331 330 330 327 325 327 332 335 337 334 335 333 332 330 330
305 315 318 320 317 313 315 316 321 322 321 320 317 316 316 317 318 317 318 318 320 324 328 332 334 332 331 330 331 332 332 329 330 331 330 329 328 330 331 330 330 330 330 333 332 330 330 330 328 328 329 331 330 333 334 333 334 332 333 333 330 331 328
312 313 314 317 317 313 318 321 321 320 321 318 316 316 316 316 317 317 317 322 320 321 323 330 334 334 333 333 332 331 331 330 330 331 331 330 329 329 330 330 330 330 331 331 331 330 329 328 328 329 331 332 332 331 333 333 332 330 331 330 328 327 327
307 317 316 318 321 319 321 318 320 319 319 321 318 317 318 316 319 319 319 320 321 320 319 321 327 335 334 333 333 331 330 330 331 333 333 332 330 328 330 329 327 331 332 333 332 331 331 330 330 329 326 329 331 330 332 333 332 330 330 329 325 324 324
Wind_Speed
12 15 10 11 6 6 5 4 5 2 2 3 3 1 4 3 1 4 1 2 0 2 1 7 16 16 16 13 9 13 13 11 12 12 14 14 12 13 14 14 13 16 15 16 15 15 14 15 14 14 14 14 14 13 12 11 10 9 10 10 8 7 7
6 10 10 11 12 6 2 5 6 4 5 2 2 2 1 4 4 3 7 8 4 5 2 3 17 17 11 8 9 14 16 16 16 12 12 13 13 13 15 15 15 18 17 18 16 15 17 17 16 14 13 13 13 13 13 13 11 12 10 9 8 7 7
12 11 11 13 12 10 5 8 12 7 6 11 1 1 1 2 4 2 3 4 4 10 5 7 9 16 11 11 11 10 13 14 12 11 12 12 9 12 12 13 13 14 14 16 16 16 16 16 15 14 12 12 10 9 11 12 13 12 12 9 8 7 7
12 10 11 11 8 6 4 4 6 10 2 8 5 6 3 6 2 1 3 4 1 2 3 11 8 12 10 11 12 13 14 12 10 9 10 12 10 12 11 11 12 14 15 16 17 17 17 16 15 13 13 11 12 11 11 9 8 8 8 9 8 8 7
11 9 8 10 8 6 4 4 3 5 5 4 6 3 5 5 3 4 1 2 4 6 3 9 10 10 10 11 10 6 10 13 12 10 11 8 9 12 13 12 13 14 15 15 15 16 14 13 12 12 13 14 12 10 10 10 11 11 10 10 9 8 7
9 4 11 9 9 8 4 6 6 4 4 0 8 6 4 3 4 2 2 1 5 4 3 6 8 7 8 8 9 7 8 6 8 11 10 10 8 9 13 14 14 14 13 13 13 12 11 12 13 14 13 12 13 12 12 11 11 11 11 9 9 8 7
9 7 15 15 12 8 8 6 4 3 2 2 1 2 3 2 2 3 5 5 2 3 2 6 10 10 11 8 6 6 7 8 8 7 10 13 13 11 12 13 13 14 14 14 15 16 16 16 15 15 13 14 13 13 13 12 12 12 11 10 9 8 8
9 11 12 19 16 13 11 8 7 5 9 5 4 4 7 3 2 4 1 3 3 4 2 6 9 8 9 7 8 5 5 9 9 7 6 12 12 13 11 10 10 11 12 11 11 12 12 13 13 14 13 13 13 13 13 12 13 13 11 10 10 9 8
7 9 5 11 12 11 5 2 5 9 12 13 7 1 2 5 6 7 6 5 3 2 1 7 7 7 7 8 3 9 8 5 7 7 7 8 12 11 12 12 10 11 11 12 13 14 13 12 12 12 13 13 13 13 13 13 12 13 11 11 10 10 9
5 8 7 7 9 9 3 4 6 5 6 11 7 7 1 3 4 6 5 3 4 4 3 7 8 7 6 6 6 9 8 6 6 6 7 7 8 11 13 12 10 13 15 14 12 12 12 12 12 11 12 13 12 12 14 13 13 14 11 11 11 11 10
7 7 3 7 10 4 7 9 9 11 10 5 6 5 2 5 4 5 7 14 7 4 4 6 6 9 10 8 6 6 6 7 7 6 6 7 8 10 13 12 13 12 10 13 14 15 14 13 12 11 12 13 11 8 12 13 13 13 11 12 11 11 10
11 9 3 4 10 9 9 10 12 14 11 7 5 7 9 7 7 5 3 16 15 12 10 8 9 7 7 7 7 9 9 8 9 8 7 7 8 7 11 10 10 12 13 13 13 13 13 13 12 11 11 12 13 10 10 12 13 13 10 13 11 12 11
8 9 7 6 4 8 7 8 13 15 16 12 8 5 6 9 9 9 12 17 17 16 15 12 12 10 9 10 9 9 9 7 6 6 8 9 9 8 11 13 12 12 12 11 13 13 13 12 12 12 11 10 10 9 8 8 11 12 11 13 13 12 10
8 10 10 8 7 3 4 9 6 10 13 13 12 8 5 10 6 8 14 12 13 14 11 15 14 12 11 9 9 8 7 9 8 8 7 9 9 10 10 13 13 13 13 12 12 12 12 14 12 12 12 12 11 10 8 8 8 10 13 13 12 11 8
0 4 9 10 9 6 5 5 11 9 5 6 7 7 10 11 4 7 17 14 11 10 14 9 6 6 9 9 9 8 6 8 8 7 7 7 9 11 11 11 13 13 13 12 11 12 13 14 14 13 13 11 11 10 10 9 11 10 12 11 10 10 7
1 3 7 14 11 7 7 10 9 8 9 9 5 4 2 5 9 5 10 6 5 4 5 7 9 9 10 8 8 7 6 5 5 4 4 5 6 7 9 9 10 11 13 13 13 13 14 14 14 12 12 12 12 11 10 9 9 8 9 8 8 8 8
2 1 8 5 6 6 9 12 12 10 9 3 4 6 11 7 3 7 8 5 4 7 7 9 7 10 7 6 4 6 7 6 6 4 2 1 1 6 8 8 11 13 14 14 15 15 13 12 13 13 13 12 12 10 10 8 8 8 8 7 8 8 8
1 2 6 5 2 4 4 0 2 3 2 3 5 7 9 7 2 3 6 8 10 11 10 10 6 9 8 7 6 9 8 6 2 1 0 0 1 3 8 8 11 11 9 9 10 14 15 14 13 12 14 14 10 9 11 11 12 9 10 8 8 9 10
1 3 6 4 9 5 3 0 4 6 9 7 6 5 6 5 8 11 11 8 9 4 6 12 11 9 8 8 8 6 7 7 6 4 4 3 1 2 4 8 8 9 11 11 9 8 9 12 11 11 9 10 11 11 13 13 11 8 6 7 8 10 10
1 1 2 1 2 1 1 3 4 4 4 5 6 4 4 6 3 6 10 9 9 10 9 5 6 6 5 6 5 7 6 8 6 5 5 5 5 5 5 6 9 11 11 12 12 11 10 12 12 12 12 12 13 11 11 13 10 8 7 7 9 10 9
2 1 1 5 3 7 2 2 3 1 0 2 3 0 3 1 2 3 5 4 6 8 8 8 9 8 9 7 4 1 2 5 6 8 6 6 6 7 7 6 7 13 15 13 11 11 12 13 13 12 12 12 12 12 10 8 5 6 8 9 10 11 11
1 1 3 3 1 4 1 1 1 5 3 4 2 3 4 3 4 5 5 7 7 9 7 9 8 6 7 5 2 3 4 0 6 4 4 1 3 6 5 4 5 5 8 10 12 14 14 13 13 12 13 12 12 11 9 10 11 10 10 10 10 11 11
1 1 1 1 1 2 0 2 1 2 2 5 4 2 4 4 7 5 4 4 4 7 7 5 7 7 4 1 1 3 4 6 7 3 2 1 4 6 6 7 6 6 8 12 12 12 13 13 13 15 16 16 14 13 11 11 11 10 10 10 9 11 11
3 3 2 2 1 1 3 5 4 6 7 11 8 2 4 5 8 2 7 7 6 6 6 8 9 8 5 3 3 2 2 2 4 9 6 6 7 6 6 5 5 6 6 9 12 14 15 14 15 15 15 14 13 12 12 10 10 10 9 10 11 10 9
4 10 4 1 2 1 3 3 3 5 7 8 3 3 1 6 5 5 10 8 7 6 6 4 4 3 4 4 1 6 3 4 2 5 8 8 8 8 7 7 6 4 4 7 12 13 12 14 15 15 14 13 13 11 10 9 10 11 10 9 8 8 7
1 3 3 3 0 0 3 4 8 3 2 1 2 1 3 5 5 8 8 11 9 8 8 6 6 5 5 7 8 6 6 4 3 5 6 8 6 5 8 10 7 5 4 4 6 9 10 14 15 14 14 13 12 10 10 11 11 9 7 7 7 7 7
5 6 5 3 2 3 2 2 3 5 2 6 5 2 1 3 7 11 11 10 8 9 7 7 7 8 9 7 6 5 5 5 4 7 8 8 8 8 8 7 6 7 5 4 5 9 10 13 13 13 14 13 11 11 11 9 5 6 7 8 7 7 7
6 5 3 3 6 5 9 2 2 2 1 4 2 3 3 7 7 6 8 9 8 9 9 11 10 8 6 5 6 8 7 6 5 6 6 5 5 6 5 6 6 9 11 15 19 13 2 7 9 10 12 10 9 8 8 6 6 5 5 5 6 6 6
2 2 4 4 2 3 3 7 6 5 4 4 4 8 7 7 7 4 8 8 9 10 11 8 6 6 7 5 5 5 5 4 3 4 4 5 6 7 8 11 13 12 10 11 8 11 16 3 8 9 9 10 10 8 5 6 6 5 3 2 1 0 1
8 6 7 3 7 6 6 4 4 6 8 9 9 8 8 7 4 5 8 7 7 7 5 4 4 4 4 5 6 6 4 4 5 6 8 9 9 10 10 12 13 10 10 10 9 4 17 11 5 8 8 10 10 6 6 6 5 4 4 3 3 2 2
13 5 15 15 9 7 9 9 9 8 8 7 5 5 5 5 6 7 7 6 5 6 7 7 5 6 6 6 6 5 10 10 7 7 8 7 7 7 10 11 12 11 10 11 8 5 9 9 5 8 9 8 7 6 6 5 4 4 4 4 4 4 3
5 9 7 7 17 9 9 9 9 8 8 9 7 6 7 8 8 8 8 8 5 3 5 4 6 7 7 5 4 7 7 7 6 5 5 8 8 6 8 10 11 10 11 12 10 6 6 11 1 6 7 6 5 4 5 4 4 4 3 2 4 4 4
2 3 4 1 1 7 8 9 8 7 8 11 13 10 11 11 11 9 8 7 8 5 5 7 8 9 7 6 6 7 5 4 5 6 5 5 7 6 7 8 11 11 8 11 15 12 2 11 2 6 7 4 5 6 4 4 6 7 5 4 4 4 5
1 2 4 4 1 0 4 9 6 7 5 9 7 5 8 8 9 8 8 8 7 7 4 7 6 6 4 5 7 8 5 4 3 3 4 4 6 7 6 9 12 13 9 8 8 13 14 11 2 6 5 5 5 7 6 6 4 6 4 4 3 2 2
6 4 4 4 7 5 5 4 1 2 4 4 8 7 7 6 5 7 6 6 7 6 5 2 6 4 7 6 7 8 6 5 4 4 5 7 6 7 8 9 9 11 11 11 8 8 10 7 5 5 5 4 6 4 1 4 6 6 4 4 3 1 1
8 6 5 3 3 3 1 1 4 4 5 6 8 8 7 7 5 6 6 4 4 5 6 2 3 6 6 7 7 7 6 6 5 5 4 5 8 9 7 9 9 8 8 9 8 6 4 5 4 5 5 2 5 6 4 4 5 5 4 3 3 2 2
4 2 3 1 1 2 1 5 7 6 7 7 6 5 7 7 5 5 5 5 5 5 5 6 2 5 6 6 8 9 8 6 7 7 7 5 7 7 7 7 8 9 9 6 5 5 6 6 6 6 7 6 3 5 5 5 5 4 4 2 1 0 2
Wind_Direction
170 189 207 222 194 198 228 91 174 204 207 121 188 216 201 210 300 253 234 299 356 342 338 111 124 142 163 175 157 163 175 158 156 170 179 180 173 167 169 169 163 164 161 164 165 163 165 167 171 174 174 174 174 173 173 172 170 171 168 170 168 168 167
222 194 203 230 221 224 150 167 210 167 262 247 133 206 189 191 179 248 197 226 230 142 260 253 134 149 169 138 158 156 162 163 171 174 177 178 174 170 171 170 166 166 165 166 167 167 169 171 173 172 177 176 175 174 172 169 170 170 175 165 166 167 166
200 184 198 228 245 242 171 191 156 170 184 250 164 101 265 194 220 250 268 215 229 182 213 154 158 142 146 128 126 140 154 159 163 167 173 173 151 162 167 166 161 164 164 167 168 170 172 172 171 171 169 170 173 174 176 170 174 175 172 167 163 167 166
176 182 177 221 226 260 247 146 181 174 145 195 187 179 197 124 195 62 287 293 264 293 231 157 168 143 140 124 120 144 153 149 152 161 160 160 151 162 161 164 164 165 167 169 168 168 171 172 171 167 166 168 174 175 174 170 167 172 167 166 164 168 170
160 204 173 197 186 213 229 229 186 178 215 167 184 192 186 157 177 158 199 347 308 287 275 143 144 138 137 134 135 141 153 155 159 158 163 160 161 161 164 165 168 169 170 169 170 172 169 165 164 163 168 172 172 168 175 172 166 172 177 173 164 166 162
186 205 174 185 198 195 203 189 207 174 191 324 168 259 195 208 109 185 130 215 264 311 3 90 104 112 101 112 123 124 131 138 146 158 162 162 166 167 168 168 166 173 170 167 166 163 161 162 168 171 171 168 171 172 175 175 170 174 178 174 170 164 160
190 200 171 187 201 210 216 199 241 188 211 181 138 163 277 113 205 158 144 116 288 275 72 87 99 100 106 106 114 136 127 125 146 155 147 169 171 174 176 172 171 172 171 169 168 168 170 172 173 172 171 173 173 172 172 178 175 177 178 176 169 161 159
193 206 182 184 190 199 216 204 211 198 235 219 200 181 180 182 173 177 54 96 242 295 309 98 113 120 117 111 108 90 129 136 142 154 147 168 176 186 186 175 168 170 171 163 159 165 169 169 173 173 174 173 172 174 175 176 178 176 173 174 169 162 156
173 213 173 191 187 188 206 192 207 194 205 223 227 89 113 169 197 166 136 143 229 256 174 112 102 91 102 112 94 109 123 128 128 126 140 153 178 176 186 187 172 163 162 162 171 175 173 172 173 173 173 174 174 174 174 177 176 176 175 172 166 165 161
176 185 207 197 193 193 177 233 241 255 222 201 190 244 133 197 248 153 108 135 234 223 145 131 130 112 114 144 150 137 148 147 139 151 133 153 151 167 180 185 173 167 175 176 174 174 173 175 175 174 173 174 175 173 175 175 172 177 176 168 170 167 164
189 211 202 187 151 174 184 197 229 250 255 249 179 149 129 186 225 176 182 149 191 202 201 170 164 148 150 163 153 128 133 131 133 143 150 157 161 159 175 173 179 177 171 176 177 176 177 176 178 176 174 177 178 167 177 176 173 173 171 169 167 162 166
190 209 232 294 170 167 190 189 207 232 251 242 228 162 208 170 117 210 233 156 158 189 191 182 172 160 152 149 148 153 164 163 159 157 157 159 163 153 167 171 171 179 183 182 177 175 174 178 177 177 179 180 183 180 182 179 173 173 168 161 158 166 171
215 205 237 220 211 220 208 204 199 206 229 243 236 193 205 153 155 192 200 169 171 186 185 180 175 169 166 172 163 160 165 165 159 147 151 163 168 162 159 179 179 177 180 183 180 176 176 171 173 178 179 181 185 189 186 183 174 169 151 155 163 168 171
209 254 254 261 253 241 294 300 269 201 203 219 234 229 188 165 185 188 176 190 173 175 187 183 184 171 164 152 145 137 133 143 160 168 168 172 169 169 163 175 180 182 180 180 179 174 175 179 176 175 179 182 186 184 172 154 141 145 148 158 158 161 159
255 264 255 252 249 252 268 278 280 272 243 243 228 230 236 245 220 148 163 184 197 204 182 173 161 151 124 134 141 153 145 134 140 146 166 188 187 182 178 171 180 181 181 181 177 178 180 181 180 176 175 174 174 167 160 144 141 147 138 142 144 147 147
308 282 250 227 237 254 261 265 254 253 250 243 248 248 211 197 226 179 146 177 198 212 161 138 142 138 137 137 135 135 144 135 136 157 184 184 190 198 191 177 170 174 177 175 178 185 187 184 179 169 162 163 161 161 156 140 130 124 123 125 129 144 171
239 267 301 282 210 216 239 243 253 263 273 356 354 331 315 270 183 135 161 196 205 160 142 113 120 123 120 114 114 88 77 87 96 103 109 107 162 187 187 172 175 178 179 178 179 183 184 181 177 171 158 156 162 156 141 114 90 86 95 135 158 166 187
136 252 265 292 319 231 231 241 35 352 343 14 338 354 320 283 154 176 142 129 119 99 81 100 114 98 117 125 141 142 141 120 108 112 121 246 234 147 176 176 174 188 185 177 175 177 182 179 168 158 162 157 143 126 113 107 117 155 165 177 175 181 199
202 32 25 349 265 253 231 274 40 34 17 13 24 24 14 13 84 98 86 81 73 83 132 141 146 149 156 145 147 135 134 126 141 170 184 191 187 223 169 173 182 184 187 187 179 167 163 156 151 145 141 129 126 121 128 142 155 158 178 179 190 194 197
60 68 97 123 231 259 306 5 336 35 30 31 29 3 56 49 35 110 120 126 122 118 117 119 121 123 112 82 97 121 126 131 146 166 194 206 206 205 205 190 185 182 187 185 181 172 152 147 152 150 146 143 138 145 153 148 152 166 193 201 197 195 195
183 156 139 215 332 316 29 1 342 358 261 72 102 139 288 64 44 114 135 120 131 117 119 103 75 69 66 68 38 53 156 192 197 197 189 189 201 208 205 190 188 187 188 182 170 154 155 157 153 151 145 145 142 145 144 127 148 190 200 203 198 193 196
330 92 356 353 13 275 293 256 336 14 355 355 110 73 321 333 31 73 97 114 109 98 101 109 113 80 56 35 359 339 42 72 235 156 145 206 196 164 143 123 139 154 161 163 157 160 157 155 149 145 147 144 149 156 156 165 179 196 202 205 196 194 200
79 35 252 201 248 248 28 146 30 336 1 25 40 47 297 300 7 37 110 109 92 108 107 92 77 76 88 150 54 300 103 108 110 112 187 221 142 129 130 134 134 136 142 157 157 154 152 150 152 153 155 159 161 172 174 179 187 194 202 198 191 198 204
156 108 136 262 257 252 288 344 7 20 25 60 57 33 295 308 312 304 74 82 102 97 96 98 89 106 127 159 198 232 284 269 193 168 160 110 118 111 117 116 125 133 129 140 158 159 162 155 151 156 158 163 170 174 182 181 185 195 194 193 195 198 199
198 168 196 194 294 281 304 359 56 39 59 66 91 186 241 300 334 36 86 79 79 86 83 82 102 174 167 180 78 1 353 341 356 128 132 136 129 128 115 119 110 119 145 150 164 164 159 149 152 158 160 166 178 180 175 178 189 194 194 190 188 193 194
333 332 224 234 114 174 336 354 15 1 55 89 181 191 257 301 9 30 55 65 55 66 65 66 60 37 29 44 39 26 14 5 104 102 102 112 117 119 127 132 131 139 142 141 134 140 147 151 156 160 162 170 175 175 175 187 197 194 184 186 191 194 194
41 20 11 6 288 280 334 75 8 14 124 218 195 182 279 57 55 51 42 43 45 55 46 53 46 42 34 31 26 21 4 14 104 136 133 140 139 135 133 131 134 135 127 145 142 150 156 152 154 158 160 164 170 171 177 185 162 144 163 184 191 190 199
122 147 172 199 225 269 304 182 142 265 141 191 183 133 18 4 44 60 59 37 36 45 53 36 31 24 34 27 26 17 16 12 118 142 140 134 112 99 105 117 108 79 70 37 2 320 218 138 142 147 143 144 142 134 132 138 120 112 109 121 146 174 203
97 160 198 230 25 288 359 55 60 66 42 31 24 60 60 48 26 39 54 40 31 31 39 34 30 30 12 6 16 17 348 29 117 117 93 97 100 102 84 51 47 50 65 98 96 324 303 137 123 130 128 124 120 116 128 106 101 98 100 108 93 120 137
2 4 1 305 53 45 39 71 101 86 65 59 60 60 64 54 29 37 59 37 28 38 34 37 16 18 10 4 351 355 3 51 46 80 77 73 75 79 81 82 77 84 80 75 71 7 305 301 105 109 110 113 110 122 108 107 130 148 153 155 169 144 121
61 331 319 341 1 30 41 44 44 59 72 73 70 72 72 75 56 56 52 36 23 32 22 15 358 344 346 9 17 30 57 49 51 74 87 80 81 94 106 111 110 105 104 91 74 38 305 302 11 79 95 98 111 122 140 158 163 158 154 149 136 123 114
133 182 235 309 323 338 33 34 22 20 28 41 38 50 53 51 40 40 55 25 339 75 78 70 67 51 28 29 42 67 71 84 68 66 93 108 99 99 115 118 116 113 112 111 103 82 314 276 174 98 102 114 126 136 128 116 133 146 143 151 142 137 129
202 164 171 136 101 341 11 33 34 24 36 35 20 27 39 34 34 21 24 45 24 18 79 71 67 54 35 49 66 74 74 74 101 116 116 110 109 115 115 119 117 117 124 126 125 120 206 288 78 91 87 102 111 105 110 103 83 84 97 120 130 135 141
89 184 197 97 85 229 33 34 22 7 354 82 78 17 39 35 38 20 17 15 9 12 42 82 85 96 80 77 93 90 97 100 90 80 99 99 98 92 100 108 114 117 117 122 134 141 151 218 189 101 112 109 108 112 111 108 124 112 109 97 86 96 115
194 190 137 146 153 144 122 172 175 86 24 69 70 48 33 24 35 31 12 15 354 354 344 98 121 138 133 132 122 125 126 142 159 151 145 130 122 119 116 111 116 129 145 152 154 165 163 166 140 141 121 84 71 70 117 129 114 110 114 117 143 163 156
84 89 89 91 112 120 302 61 86 50 26 39 54 48 32 9 12 15 353 352 352 323 322 325 148 157 151 148 139 133 147 162 157 171 172 157 149 149 150 140 146 146 153 162 167 176 148 122 107 71 80 169 183 172 146 117 109 114 124 127 144 192 198
102 62 85 50 57 358 354 65 55 53 31 39 43 32 23 349 342 337 329 335 316 307 300 296 267 190 153 152 148 150 158 173 179 176 173 166 162 158 163 159 159 159 164 157 141 149 150 147 134 144 194 202 162 115 132 135 129 133 127 117 119 73 86